Location: Newark
(33.4453°N, 112.0669°W)
Time: 20:17:20
(UTC+00:00)

Courier 1B Rocket - All Passes

Search period start: 16 February 2020 00:00
Search period end: 26 February 2020 00:00
Orbit: 920 x 1202 km, 28.2° (Epoch: 16 February)

Date Brightness Start Highest point End Pass type
(mag) Time Alt. Az. Time Alt. Az. Time Alt. Az.
16 Feb - 08:43:18 10° SSW 08:48:35 26° SSE 08:54:09 10° ESE night (unlit)
16 Feb - 10:35:01 10° WSW 10:41:32 50° S 10:48:32 10° E visible
16 Feb - 12:27:59 10° W 12:34:55 58° S 12:42:19 10° ESE visible
16 Feb - 14:21:30 10° W 14:28:18 40° SSW 14:35:25 10° SE daylight
16 Feb - 16:16:33 10° WSW 16:21:24 18° SSW 16:26:20 10° S daylight
17 Feb - 07:43:33 10° SSW 07:47:47 18° SSE 07:52:10 10° ESE night (unlit)
17 Feb - 09:34:24 10° SW 09:40:33 42° SSE 09:47:08 10° E visible
17 Feb - 11:27:03 10° WSW 11:33:47 58° S 11:41:01 10° ESE visible
17 Feb - 13:20:21 10° W 13:27:10 47° SSW 13:34:25 10° ESE visible
17 Feb - 15:14:35 10° WSW 15:20:22 24° SSW 15:26:21 10° SSE daylight
18 Feb - 06:44:47 10° S 06:47:02 12° SSE 06:49:18 10° SE night (unlit)
18 Feb - 08:33:57 10° SW 08:39:39 33° SSE 08:45:40 10° E night (unlit)
18 Feb - 10:26:14 10° WSW 10:32:42 55° S 10:39:42 10° E visible
18 Feb - 12:19:19 10° W 12:26:03 53° S 12:33:17 10° ESE visible
18 Feb - 14:13:04 10° W 14:19:19 31° SSW 14:25:53 10° SE daylight
18 Feb - 16:09:58 10° SW 16:12:20 12° SSW 16:14:43 10° SSW daylight
19 Feb - 07:33:46 10° SSW 07:38:49 25° SSE 07:44:05 10° ESE night (unlit)
19 Feb - 09:25:29 10° WSW 09:31:42 49° S 09:38:22 10° E visible
19 Feb - 11:18:22 10° W 11:24:58 56° S 11:32:04 10° ESE visible
19 Feb - 13:11:48 10° W 13:18:15 38° SSW 13:25:07 10° SE visible
19 Feb - 15:06:50 10° WSW 15:11:20 17° SSW 15:15:57 10° S daylight
20 Feb - 06:33:59 10° SSW 06:38:03 18° SSE 06:42:12 10° ESE night (unlit)
20 Feb - 08:24:52 10° SW 08:30:46 41° SSE 08:37:02 10° E night (unlit)
20 Feb - 10:17:30 10° WSW 10:23:55 57° S 10:30:48 10° ESE visible
20 Feb - 12:10:43 10° W 12:17:12 45° SSW 12:24:08 10° ESE visible
20 Feb - 14:04:53 10° WSW 14:10:19 23° SSW 14:16:00 10° SSE daylight
21 Feb - 05:35:09 10° S 05:37:19 12° SSE 05:39:28 10° SE night (unlit)
21 Feb - 07:24:24 10° SW 07:29:55 33° SSE 07:35:39 10° E night (unlit)
21 Feb - 09:16:42 10° WSW 09:22:55 54° S 09:29:33 10° E visible
21 Feb - 11:09:44 10° W 11:16:10 51° S 11:23:02 10° ESE visible
21 Feb - 13:03:25 10° W 13:09:19 30° SSW 13:15:33 10° SE visible
21 Feb - 15:00:52 10° SW 15:02:17 11° SSW 15:03:43 10° SSW daylight
22 Feb - 06:24:10 10° SSW 06:29:07 25° SSE 06:34:11 10° ESE night (unlit)
22 Feb - 08:15:57 10° WSW 08:21:58 48° S 08:28:19 10° E night (unlit)
22 Feb - 10:08:50 10° W 10:15:08 55° S 10:21:53 10° ESE visible
22 Feb - 12:02:14 10° W 12:08:19 36° SSW 12:14:50 10° SE visible
22 Feb - 13:57:19 10° WSW 14:01:19 16° SSW 14:05:28 10° S daylight
23 Feb - 05:24:17 10° SSW 05:28:21 18° SSE 05:32:27 10° ESE night (unlit)
23 Feb - 07:15:18 10° SW 07:21:05 41° SSE 07:27:04 10° E night (unlit)
23 Feb - 09:07:59 10° WSW 09:14:09 55° S 09:20:42 10° ESE night (unlit)
23 Feb - 11:01:11 10° W 11:07:20 43° SSW 11:13:55 10° SE visible
23 Feb - 12:55:21 10° WSW 13:00:22 21° SSW 13:05:37 10° SSE visible
24 Feb - 04:25:15 10° S 04:27:36 12° SSE 04:29:57 10° SE night (unlit)
24 Feb - 06:14:46 10° SW 06:20:15 33° SSE 06:25:49 10° E night (unlit)
24 Feb - 08:07:09 10° WSW 08:13:13 53° S 08:19:32 10° E night (unlit)
24 Feb - 10:00:13 10° W 10:06:22 49° S 10:12:53 10° ESE visible
24 Feb - 11:53:54 10° WSW 11:59:25 28° SSW 12:05:16 10° SE visible
25 Feb - 05:14:27 10° SSW 05:19:28 25° SSE 05:24:28 10° ESE night (unlit)
25 Feb - 07:06:21 10° WSW 07:12:19 48° S 07:18:24 10° E night (unlit)
25 Feb - 08:59:18 10° W 09:05:25 53° S 09:11:49 10° ESE night (unlit)
25 Feb - 10:52:43 10° W 10:58:29 34° SSW 11:04:37 10° SE visible
25 Feb - 12:47:59 10° WSW 12:51:24 14° SSW 12:54:56 10° S visible
